Flag for U.S.A. Weather past 2 weeks in Little Rock, Arkansas, U.S.A.

64 °F

Light rain. Fog.

Feels Like: 64 °F
Forecast: 63 / 67 °F
Wind: 6 mph from South

Location: Adams Field

Current Time: Nov 27, 2015 at 1:09:38 PM

Latest Report: Nov 27, 2015 at 11:53 AM

Visibility: 6 mi

Pressure: 30.22 "Hg

Humidity: 94%

Dew point: 62 °F

Location of Little RockLocation

Historic Weather in Little Rock — Graph


Little Rock temperature yesterday

Maximum temperature yesterday: 74 °F (at 12:53 PM)
Minimum temperature yesterday: 60 °F (at 3:53 AM)
Average temperature yesterday: 66 °F

Past Weeks' High & Low Weather Summary

High74 °F (Nov 26, 12:53 PM)97% (Nov 16, 7:58 PM)30.46 "Hg (Nov 16, 7:58 PM)
Low30 °F (Nov 22, 6:53 AM)23% (Nov 13, 12:53 PM)29.51 "Hg (Nov 17, 1:53 PM)
Average53 °F67%30.17 "Hg
* Reported Nov 12 11:53 AM — Nov 27 11:53 AM, Little Rock, Weather by CustomWeather, © 2015

Note: Actual official high and low records may vary slightly from our data, if they occured in-between our weather recording intervals... More about our weather records


Little Rock weather history for previous 24 hours

Time TempWeatherWind HumidityBarometerVisibility
11:53 AM
Fri, Nov 27
64 °FLight rain. Fog.6 mph94%30.22 "Hg6 mi
10:53 AM64 °FOvercast.8 mph90%30.23 "Hg10 mi
9:53 AM64 °FLight rain. Fog.9 mph90%30.23 "Hg6 mi
8:53 AM64 °FLight rain. Mostly cloudy.14 mph94%30.23 "Hg10 mi
7:53 AM64 °FLight rain. Mostly cloudy.15 mph90%30.23 "Hg6 mi
6:53 AM64 °FLight rain. Overcast.9 mph90%30.24 "Hg6 mi
5:53 AM65 °FLight rain. Overcast.13 mph85%30.23 "Hg10 mi
4:53 AM64 °FLight rain. Overcast.9 mph87%30.23 "Hg10 mi
3:53 AM64 °FLight rain. Passing clouds.12 mph87%30.24 "Hg10 mi
2:53 AM67 °FLight rain. Mostly cloudy.13 mph76%30.25 "Hg10 mi
1:53 AM68 °FLight rain. Overcast.12 mph73%30.27 "Hg10 mi
12:53 AM66 °FLight rain. Mostly cloudy.5 mph78%30.26 "Hg10 mi
11:53 PM
Thu, Nov 26
66 °FMostly cloudy.6 mph78%30.27 "Hg10 mi
10:53 PM67 °FOvercast.10 mph76%30.26 "Hg10 mi
9:53 PM67 °FMostly cloudy.10 mph79%30.26 "Hg10 mi
8:53 PM67 °FMostly cloudy.7 mph79%30.26 "Hg10 mi
7:53 PM67 °FMostly cloudy.7 mph79%30.25 "Hg10 mi
6:53 PM68 °FMostly cloudy.8 mph73%30.27 "Hg10 mi
5:53 PM70 °FOvercast.7 mph68%30.26 "Hg10 mi
4:53 PM71 °FOvercast.9 mph66%30.26 "Hg10 mi
3:53 PM71 °FMostly cloudy.6 mph66%30.25 "Hg10 mi
2:53 PM71 °FMostly cloudy.9 mph66%30.25 "Hg10 mi
1:53 PM73 °FPartly sunny.12 mph62%30.25 "Hg10 mi
Weather by CustomWeather, © 2015

See weather overviewHow to use our weather pages